Jamestown, NY

7:22 PM EDT on July 21, 2017 (GMT -0400)
Chautauqua County-Jamestown

Weather History for KJHW - October, 2014

Change the Weather History Date:

Wednesday, October 8, 2014

  Actual Average Record
Temperature  
Mean Temperature 52 °F -  
Max Temperature 55 °F 59 °F 80 °F (2007)
Min Temperature 48 °F 38 °F 27 °F (1960)
Degree Days  
Heating Degree Days 14    
Growing Degree Days 2 (Base 50)    
Moisture  
Dew Point 42 °F    
Average Humidity 74    
Maximum Humidity 94    
Minimum Humidity 47    
Precipitation  
Precipitation 0.11 in - - ()
Sea Level Pressure  
Sea Level Pressure 29.85 in    
Wind  
Wind Speed 13 mph (WSW)    
Max Wind Speed 29 mph    
Max Gust Speed 41 mph    
Visibility 10 miles    
Events      
Averages and records for this station are not official NWS values.
T = Trace of Precipitation, MM = Missing Value Source: NWS Daily Summary

Daily Weather History Graph

Daily Weather History Graph

Search for Another Location

Airport or City:

Trip Planner

Search our weather history database for the weather conditions in past years. The results will help you decide how hot, cold, wet, or windy it might be!

Date:

Astronomy

Oct. 08, 2014 Rise Set
Actual Time 7:21 AM EDT 6:46 PM EDT
Civil Twilight 6:53 AM EDT 7:14 PM EDT
Nautical Twilight 6:21 AM EDT 7:47 PM EDT
Astronomical Twilight 5:48 AM EDT 8:19 PM EDT
Moon 6:59 PM EDT (10/8) 7:26 AM EDT (10/8)
Length of Visible Light 12h 20m
Length of Day
11h 24m
Full, 100% of the Moon is Illuminated
Oct 8
Full
Oct 15
Last Quarter
Oct 23
New
Oct 30
First Quarter
Nov 6
Full

Hourly Weather History & Observations

Time (EDT) Temp. Dew Point Humidity Pressure Visibility Wind Dir Wind Speed Gust Speed Precip Events Conditions
12:15 AM 51.8 °F 50.0 °F 94% 29.73 in 10.0 mi SW 9.2 mph - N/A   Overcast
12:35 AM 51.8 °F 48.2 °F 88% 29.73 in 10.0 mi WSW 13.8 mph 21.9 mph N/A   Overcast
12:55 AM 51.8 °F 48.2 °F 88% 29.73 in 10.0 mi WSW 12.7 mph - N/A   Mostly Cloudy
1:15 AM 51.8 °F 48.2 °F 88% 29.73 in 9.0 mi WSW 12.7 mph 18.4 mph 0.03 in   Mostly Cloudy
1:35 AM 51.8 °F 48.2 °F 88% 29.73 in 10.0 mi WSW 11.5 mph - 0.04 in   Overcast
1:55 AM 51.8 °F 48.2 °F 88% 29.74 in 10.0 mi WSW 9.2 mph - 0.04 in   Overcast
2:15 AM 51.8 °F 48.2 °F 88% 29.74 in 10.0 mi SW 9.2 mph - N/A   Overcast
2:35 AM 51.8 °F 48.2 °F 88% 29.74 in 10.0 mi SW 9.2 mph - N/A   Overcast
2:55 AM 51.8 °F 48.2 °F 88% 29.74 in 10.0 mi SW 10.4 mph - N/A   Overcast
3:15 AM 51.8 °F 48.2 °F 88% 29.74 in 10.0 mi SW 12.7 mph 16.1 mph N/A   Overcast
3:35 AM 51.8 °F 48.2 °F 88% 29.74 in 10.0 mi SW 9.2 mph - 0.01 in   Overcast
3:55 AM 51.8 °F 48.2 °F 88% 29.74 in 10.0 mi SW 9.2 mph - 0.01 in   Overcast
4:15 AM 51.8 °F 48.2 °F 88% 29.75 in 8.0 mi SW 10.4 mph 16.1 mph N/A   Overcast
4:35 AM 51.8 °F 48.2 °F 88% 29.76 in 9.0 mi WSW 11.5 mph - 0.01 in   Mostly Cloudy
4:55 AM 50.0 °F 46.4 °F 87% 29.76 in 10.0 mi WSW 11.5 mph - 0.02 in   Overcast
5:15 AM 50.0 °F 46.4 °F 87% 29.77 in 9.0 mi WSW 12.7 mph - 0.02 in   Mostly Cloudy
5:35 AM 48.2 °F 46.4 °F 93% 29.78 in 9.0 mi WSW 13.8 mph - 0.03 in   Mostly Cloudy
5:55 AM 48.2 °F 46.4 °F 93% 29.78 in 10.0 mi WSW 9.2 mph - 0.04 in   Overcast
6:15 AM 48.2 °F 46.4 °F 93% 29.78 in 10.0 mi WSW 5.8 mph - N/A   Overcast
6:35 AM 50.0 °F 46.4 °F 87% 29.79 in 10.0 mi WSW 10.4 mph - N/A   Overcast
6:55 AM 48.2 °F 46.4 °F 93% 29.79 in 10.0 mi SW 6.9 mph - N/A   Overcast
7:15 AM 48.2 °F 46.4 °F 93% 29.79 in 10.0 mi SW 8.1 mph - N/A   Overcast
7:35 AM 48.2 °F 46.4 °F 93% 29.80 in 8.0 mi SW 9.2 mph - N/A   Overcast
7:55 AM 48.2 °F 46.4 °F 93% 29.80 in 8.0 mi SW 8.1 mph - N/A   Overcast
8:15 AM 48.2 °F 46.4 °F 93% 29.82 in 9.0 mi SW 9.2 mph - N/A   Overcast
8:35 AM 48.2 °F 46.4 °F 93% 29.81 in 10.0 mi SSW 8.1 mph 17.3 mph N/A   Mostly Cloudy
8:55 AM 48.2 °F 46.4 °F 93% 29.82 in 10.0 mi SW 9.2 mph - N/A   Mostly Cloudy
9:15 AM 50.0 °F 46.4 °F 87% 29.81 in 10.0 mi SSW 12.7 mph 17.3 mph N/A   Partly Cloudy
9:35 AM 51.8 °F 44.6 °F 76% 29.81 in 10.0 mi SW 12.7 mph 20.7 mph N/A   Clear
9:55 AM 51.8 °F 46.4 °F 82% 29.82 in 10.0 mi SW 15.0 mph 24.2 mph N/A   Scattered Clouds
10:15 AM 51.8 °F 44.6 °F 76% 29.83 in 10.0 mi SW 16.1 mph 23.0 mph N/A   Mostly Cloudy
10:35 AM 51.8 °F 44.6 °F 76% 29.84 in 10.0 mi WSW 17.3 mph 26.5 mph N/A   Overcast
10:55 AM 51.8 °F 46.4 °F 82% 29.85 in 10.0 mi WSW 20.7 mph 29.9 mph N/A   Overcast
11:15 AM 51.8 °F 46.4 °F 82% 29.85 in 10.0 mi WSW 18.4 mph 25.3 mph N/A   Overcast
11:35 AM 53.6 °F 46.4 °F 77% 29.85 in 10.0 mi SW 19.6 mph 26.5 mph N/A   Overcast
11:55 AM 51.8 °F 44.6 °F 76% 29.85 in 10.0 mi WSW 18.4 mph 24.2 mph N/A   Mostly Cloudy
12:15 PM 55.4 °F 44.6 °F 67% 29.86 in 10.0 mi West 23.0 mph 28.8 mph N/A   Mostly Cloudy
12:35 PM 55.4 °F 41.0 °F 58% 29.86 in 10.0 mi West 17.3 mph 28.8 mph N/A   Mostly Cloudy
12:55 PM 53.6 °F 37.4 °F 54% 29.87 in 10.0 mi West 24.2 mph 36.8 mph N/A   Scattered Clouds
1:15 PM 53.6 °F 37.4 °F 54% 29.87 in 10.0 mi West 26.5 mph 34.5 mph N/A   Partly Cloudy
1:35 PM 51.8 °F 35.6 °F 54% 29.87 in 10.0 mi West 24.2 mph 36.8 mph N/A   Scattered Clouds
1:55 PM 53.6 °F 37.4 °F 54% 29.87 in 10.0 mi West 25.3 mph 38.0 mph N/A   Mostly Cloudy
2:15 PM 53.6 °F 37.4 °F 54% 29.87 in 10.0 mi West 28.8 mph 34.5 mph N/A   Mostly Cloudy
2:55 PM 51.8 °F 35.6 °F 54% 29.88 in 10.0 mi West 19.6 mph 32.2 mph N/A   Overcast
3:15 PM 51.8 °F 35.6 °F 54% 29.89 in 10.0 mi West 25.3 mph 41.4 mph N/A   Overcast
3:35 PM 53.6 °F 33.8 °F 47% 29.89 in 10.0 mi West 18.4 mph 34.5 mph N/A   Mostly Cloudy
3:55 PM 51.8 °F 33.8 °F 50% 29.90 in 10.0 mi West 19.6 mph 27.6 mph N/A   Mostly Cloudy
4:15 PM 51.8 °F 35.6 °F 54% 29.91 in 10.0 mi West 18.4 mph 25.3 mph N/A   Overcast
4:35 PM 50.0 °F 37.4 °F 62% 29.91 in 10.0 mi West 11.5 mph 19.6 mph N/A   Overcast
4:55 PM 50.0 °F 35.6 °F 58% 29.91 in 10.0 mi West 16.1 mph 21.9 mph N/A   Overcast
5:15 PM 50.0 °F 35.6 °F 58% 29.92 in 10.0 mi West 15.0 mph 18.4 mph N/A   Mostly Cloudy
5:35 PM 50.0 °F 37.4 °F 62% 29.92 in 10.0 mi West 12.7 mph - N/A   Overcast
5:55 PM 50.0 °F 35.6 °F 58% 29.93 in 10.0 mi West 13.8 mph 20.7 mph N/A   Overcast
6:15 PM 50.0 °F 35.6 °F 58% 29.93 in 10.0 mi West 10.4 mph - N/A   Overcast
6:35 PM 50.0 °F 35.6 °F 58% 29.93 in 10.0 mi West 10.4 mph - N/A   Overcast
6:55 PM 48.2 °F 37.4 °F 66% 29.93 in 10.0 mi WSW 9.2 mph - N/A   Overcast
7:15 PM 48.2 °F 37.4 °F 66% 29.93 in 10.0 mi West 8.1 mph - N/A   Overcast
7:35 PM 48.2 °F 39.2 °F 71% 29.93 in 10.0 mi WSW 9.2 mph - N/A   Overcast
7:55 PM 48.2 °F 39.2 °F 71% 29.93 in 10.0 mi SW 6.9 mph - N/A   Overcast
8:15 PM 48.2 °F 39.2 °F 71% 29.93 in 10.0 mi SW 8.1 mph - N/A   Overcast
8:35 PM 48.2 °F 39.2 °F 71% 29.93 in 10.0 mi SW 9.2 mph - N/A   Mostly Cloudy
8:55 PM 48.2 °F 39.2 °F 71% 29.93 in 10.0 mi SSW 6.9 mph - N/A   Mostly Cloudy
9:15 PM 48.2 °F 39.2 °F 71% 29.93 in 10.0 mi SW 8.1 mph - N/A   Mostly Cloudy
9:35 PM 48.2 °F 39.2 °F 71% 29.93 in 10.0 mi SW 8.1 mph - N/A   Overcast
9:55 PM 48.2 °F 39.2 °F 71% 29.94 in 10.0 mi SW 13.8 mph - N/A   Overcast
10:15 PM 48.2 °F 39.2 °F 71% 29.95 in 10.0 mi WSW 12.7 mph - N/A   Overcast
10:35 PM 50.0 °F 37.4 °F 62% 29.96 in 10.0 mi West 16.1 mph 21.9 mph N/A   Overcast
10:55 PM 50.0 °F 33.8 °F 54% 29.97 in 10.0 mi WNW 17.3 mph 26.5 mph N/A   Mostly Cloudy
11:15 PM 48.2 °F 30.2 °F 50% 29.97 in 10.0 mi West 10.4 mph 18.4 mph N/A   Clear
11:35 PM 48.2 °F 30.2 °F 50% 29.97 in 10.0 mi West 10.4 mph 16.1 mph N/A   Scattered Clouds
11:55 PM 48.2 °F 32.0 °F 54% 29.97 in 10.0 mi West 10.4 mph 19.6 mph N/A   Overcast